[[{"header":{"parameterUnit":"m.s-1","parameterCategory":1,"la1":30.2991,"la2":30.254,"lo1":-89.0895,"lo2":-89.0444,"dy":0.0017,"dx":0.0017,"nx":28,"ny":28,"refTime":"2023-10-28T03:00:00:Z","depth":0,"parameterNumber":2,"parameterNumberName":"U-component_of_WINDS"},"data":[0,0,0,0,0,0,0,0,0,0,0,0,0,0,0,0,0,0,0,0,0,0,0,0,0,0,0,0,0,0,0,0,0,0,0,0,0,0,0,0,0,0,0,0,0,0,0,0,0,0,0,0,0,0,0,0,0,0,-2.4174,-2.4175,0,-2.4245,-2.4245,-2.4246,-2.4243,-2.4242,-2.4241,-2.424,-2.4312,-2.4314,-2.4317,0,0,0,0,0,0,0,0,0,0,0,0,0,-2.4036,-2.4039,-2.4174,-2.4175,-2.4176,-2.4245,-2.4246,-2.4246,-2.4243,-2.4242,-2.4241,-2.424,-2.4311,-2.4314,-2.4317,0,0,0,0,0,0,0,0,0,0,0,0,0,-2.41,-2.404,-2.4174,-2.4183,-2.4184,-2.4244,-2.4246,-2.4247,-2.4244,-2.4242,-2.4241,-2.4239,-2.4309,-2.4314,-2.4318,-2.4374,0,0,-2.4331,-2.4333,0,0,0,0,0,0,0,0,-2.4097,-2.4105,-2.418,-2.4182,-2.4184,-2.4234,-2.4223,-2.4289,-2.4244,-2.4221,-2.424,-2.4239,-2.4287,-2.4293,-2.4309,-2.4377,-2.438,-2.4331,-2.4334,-2.4335,-2.4337,0,0,0,0,0,0,0,-2.4092,-2.4102,-2.4202,-2.4182,-2.4184,-2.4183,-2.419,-2.4236,-2.4261,-2.4223,-2.4223,-2.4231,-2.4287,-2.4305,-2.4311,-2.4381,-2.4331,-2.4335,-2.4337,-2.4339,-2.4499,-2.45,0,0,0,0,0,0,-2.4086,-2.4099,-2.42,-2.4204,-2.4136,-2.4187,-2.4195,-2.4219,-2.4261,-2.4266,-2.4233,-2.4231,-2.4299,-2.4306,-2.4313,-2.4381,-2.4335,-2.4339,-2.4342,-2.4497,-2.4499,-2.4501,0,0,0,0,0,0,-2.4083,-2.4095,-2.4197,-2.4151,-2.4164,-2.4191,-2.4218,-2.4221,-2.4239,-2.4268,-2.4273,-2.4246,-2.4298,-2.4307,-2.4359,-2.4384,-2.4341,-2.4345,-2.4495,-2.4498,-2.45,-2.4518,0,0,0,0,0,0,-2.4079,-2.4094,-2.4116,-2.4152,-2.4167,-2.4241,-2.4219,-2.4224,-2.4247,-2.4245,-2.4282,-2.4287,-2.4297,-2.4353,-2.4363,-2.4389,-2.4348,-2.4493,-2.4496,-2.4499,-2.4515,-2.4521,-2.4526,0,0,0,0,0,-2.4074,-2.4117,-2.4117,-2.4129,-2.4194,-2.4243,-2.4251,-2.4263,-2.4249,-2.427,-2.4289,-2.4285,-2.438,-2.4358,-2.437,-2.4397,-2.4491,-2.4495,-2.4499,-2.4513,-2.452,-2.4526,0,0,0,0,0,0,-2.4082,-2.4122,-2.4122,-2.4178,-2.4207,-2.4242,-2.427,-2.427,-2.4303,-2.43,-2.4313,-2.4322,-2.4373,-2.4391,-2.4365,-2.4454,-2.4434,-2.444,-2.444,-2.4447,-2.4452,-2.4446,-2.4352,0,0,0,0,0,-2.4091,-2.4127,-2.416,-2.4206,-2.4221,-2.4243,-2.4265,-2.4271,-2.4302,-2.4314,-2.4336,-2.4366,-2.4402,-2.4426,-2.4461,-2.4519,-2.4526,-2.4543,-2.4549,-2.4553,-2.4558,-2.459,-2.4597,-2.4514,-2.4514,-2.4514,0,0,-2.4108,-2.4135,-2.4157,-2.4209,-2.4232,-2.4269,-2.4253,-2.4293,-2.4321,-2.432,-2.437,-2.4388,-2.4422,-2.4476,-2.4502,-2.4492,-2.4583,-2.4558,-2.4561,-2.4563,-2.4594,-2.4602,-2.4609,-2.4516,-2.4516,-2.4515,0,0,-2.4159,-2.4183,-2.4224,-2.4248,-2.4284,-2.4299,-2.4309,-2.4344,-2.4356,-2.4407,-2.4407,-2.444,-2.4503,-2.4527,-2.4547,-2.4609,-2.4607,-2.462,-2.4647,-2.4678,-2.4684,-2.469,-2.4712,-2.4719,-2.4625,-2.4625,-2.4625,0,-2.4176,-2.4232,-2.4245,-2.4286,-2.4309,-2.4311,-2.4353,-2.4375,-2.4421,-2.4436,-2.4426,-2.4504,-2.4527,-2.4588,-2.4603,-2.462,-2.4632,-2.4615,-2.4682,-2.4688,-2.4694,-2.4715,-2.4723,-2.4627,-2.4627,-2.4626,-2.4626,0,-2.4251,-2.429,-2.4319,-2.4364,-2.439,-2.4431,-2.445,-2.4476,-2.4481,-2.4497,-2.4548,-2.4576,-2.4617,-2.4633,-2.4638,-2.4694,-2.4687,-2.468,-2.4659,-2.4703,-2.4723,-2.4731,-2.4629,-2.4628,-2.4628,-2.4627,0,0,-2.4307,-2.4359,-2.437,-2.439,-2.4431,-2.4461,-2.4502,-2.4543,-2.4564,-2.4596,-2.4631,-2.4684,-2.4678,-2.4701,-2.4709,-2.4737,-2.4783,-2.4725,-2.4726,-2.4735,-2.4848,-2.4852,-2.4861,-2.4783,-2.4785,-2.4786,-2.4844,0,-2.4361,-2.4435,-2.4449,-2.4512,-2.4549,-2.4552,-2.4588,-2.4617,-2.4633,-2.4666,-2.4685,-2.4722,-2.4711,-2.4725,-2.4752,-2.4772,-2.4806,-2.4768,-2.4815,-2.4817,-2.4805,-2.4872,-2.4877,-2.4931,-2.4852,-2.4854,-2.4855,0,-2.4434,-2.4468,-2.4536,-2.4572,-2.4588,-2.462,-2.4659,-2.4691,-2.4724,-2.4734,-2.476,-2.4766,-2.4809,-2.4788,-2.4848,-2.4822,-2.4842,-2.4855,-2.4858,-2.4861,-2.4837,-2.4876,-2.4948,-2.4956,-2.4867,-2.4866,-2.4865,0,-2.4467,-2.453,-2.4579,-2.4596,-2.464,-2.4663,-2.4682,-2.4713,-2.4737,-2.4771,-2.4787,-2.4826,-2.4847,-2.4877,-2.4892,-2.4876,-2.4951,-2.4932,-2.496,-2.496,-2.4975,-2.4973,-2.505,-2.499,-2.499,-2.4989,-2.4989,0,-2.4525,-2.4566,-2.4594,-2.4624,-2.467,-2.4686,-2.4732,-2.4751,-2.4779,-2.4813,-2.4819,-2.485,-2.487,-2.4904,-2.4917,-2.4964,-2.4974,-2.4983,-2.4986,-2.4982,-2.4981,-2.4994,-2.4991,-2.4992,-2.4991,-2.4991,-2.499,0,-2.4569,-2.459,-2.4643,-2.4681,-2.4691,-2.4724,-2.4756,-2.4785,-2.4802,-2.4845,-2.4856,-2.4882,-2.4923,-2.4942,-2.4993,-2.5002,-2.5055,-2.5056,-2.5044,-2.5045,-2.5072,-2.5069,-2.5159,-2.5172,-2.5104,-2.5105,-2.5106,0,-2.4605,-2.4636,-2.4678,-2.4701,-2.4721,-2.4758,-2.4783,-2.48,-2.4826,-2.4867,-2.4891,-2.4932,-2.4966,-2.5031,-2.5055,-2.5094,-2.5095,-2.5124,-2.5101,-2.5096,-2.5095,-2.5092,-2.5095,-2.5128,-2.5128,-2.5129,-2.5129,0,-2.4665,-2.4674,-2.4709,-2.4748,-2.4778,-2.481,-2.4841,-2.4859,-2.4882,-2.491,-2.4952,-2.4979,-2.5031,-2.5072,-2.5113,-2.5133,-2.5135,-2.5137,-2.5145,-2.5141,-2.5133,-2.5137,-2.5055,-2.5134,-2.5134,-2.5133,-2.5133,-2.5133,-2.4705,-2.4733,-2.4767,-2.4807,-2.4832,-2.4862,-2.4891,-2.4912,-2.4948,-2.4992,-2.5,-2.5045,-2.5078,-2.5134,-2.5155,-2.5191,-2.5184,-2.5196,-2.5199,-2.5202,-2.5203,-2.5128,-2.5198,-2.5198,-2.5198,-2.5198,-2.5198,0,-2.4765,-2.4787,-2.4823,-2.4867,-2.4898,-2.4899,-2.4934,-2.496,-2.4999,-2.503,-2.5064,-2.5113,-2.5153,-2.5181,-2.5221,-2.5244,-2.5246,-2.5254,-2.5252,-2.5257,-2.5207,-2.5195,-2.5252,-2.5252,-2.5252,-2.5252,-2.5252,-2.5252,-2.4799,-2.4848,-2.4861,-2.4922,-2.4944,-2.4988,-2.5008,-2.5036,-2.5061,-2.5115,-2.5148,-2.5167,-2.5197,-2.524,-2.5277,-2.5284,-2.5298,-2.5307,-2.5313,-2.5266,-2.526,-2.5255,-2.5244,-2.531,-2.531,-2.536,-2.5361,-2.5361]},{"header":{"parameterUnit":"m.s-1","parameterCategory":1,"la1":30.2991,"la2":30.254,"lo1":-89.0895,"lo2":-89.0444,"dy":0.0017,"dx":0.0017,"nx":28,"ny":28,"refTime":"2023-10-28T03:00:00:Z","depth":0,"parameterNumber":3,"parameterNumberName":"V-component_of_WINDS"},"data":[0,0,0,0,0,0,0,0,0,0,0,0,0,0,0,0,0,0,0,0,0,0,0,0,0,0,0,0,0,0,0,0,0,0,0,0,0,0,0,0,0,0,0,0,0,0,0,0,0,0,0,0,0,0,0,0,0,0,0.5306,0.5307,0,0.5362,0.5362,0.5363,0.5369,0.5368,0.5368,0.5367,0.542,0.5422,0.5424,0,0,0,0,0,0,0,0,0,0,0,0,0,0.5204,0.5206,0.5306,0.5307,0.5308,0.5361,0.5362,0.5363,0.5369,0.5368,0.5368,0.5367,0.5419,0.5422,0.5424,0,0,0,0,0,0,0,0,0,0,0,0,0,0.5253,0.5206,0.5306,0.5317,0.5319,0.5361,0.5362,0.5363,0.5369,0.5368,0.5367,0.5367,0.5419,0.5421,0.5424,0.5458,0,0,0.5433,0.5434,0,0,0,0,0,0,0,0,0.525,0.5256,0.5315,0.5317,0.5318,0.5358,0.5345,0.5395,0.5369,0.535,0.5367,0.5366,0.54,0.5404,0.5416,0.5461,0.5463,0.5433,0.5435,0.5436,0.5437,0,0,0,0,0,0,0,0.5246,0.5254,0.5328,0.5316,0.5318,0.5319,0.5325,0.5355,0.5378,0.5351,0.5352,0.5359,0.54,0.5413,0.5417,0.5464,0.5433,0.5436,0.5437,0.5439,0.5541,0.5542,0,0,0,0,0,0,0.5241,0.5251,0.5326,0.533,0.5282,0.5321,0.5328,0.5346,0.5378,0.5383,0.5359,0.5359,0.5409,0.5414,0.5419,0.5463,0.5436,0.5439,0.5441,0.554,0.5542,0.5543,0,0,0,0,0,0,0.5239,0.5248,0.5324,0.5291,0.53,0.5324,0.5344,0.5347,0.536,0.5384,0.5388,0.5368,0.5408,0.5415,0.5449,0.5465,0.544,0.5443,0.5539,0.5541,0.5542,0.555,0,0,0,0,0,0,0.5236,0.5247,0.5261,0.5291,0.5302,0.5354,0.5345,0.5349,0.5366,0.5365,0.5394,0.5398,0.5408,0.5445,0.5452,0.5468,0.5445,0.5538,0.554,0.5542,0.5548,0.5551,0.5554,0,0,0,0,0,0.5233,0.5259,0.5261,0.527,0.532,0.5355,0.5361,0.5374,0.5367,0.5381,0.5396,0.5397,0.5462,0.5448,0.5457,0.5474,0.5537,0.5539,0.5542,0.5547,0.5551,0.5554,0,0,0,0,0,0,0.5229,0.5263,0.5266,0.5304,0.5327,0.5356,0.5374,0.5377,0.5401,0.54,0.5414,0.542,0.5454,0.5467,0.5452,0.551,0.5499,0.5503,0.55,0.5504,0.5507,0.5503,0.5447,0,0,0,0,0,0.5232,0.5259,0.5287,0.5318,0.5329,0.535,0.5365,0.5373,0.5397,0.5406,0.5424,0.5446,0.5472,0.5488,0.5513,0.555,0.5557,0.5566,0.5569,0.5571,0.5575,0.5597,0.5602,0.555,0.555,0.555,0,0,0.524,0.5262,0.5278,0.5318,0.5336,0.5363,0.5357,0.5385,0.5406,0.541,0.5444,0.5458,0.5484,0.552,0.5537,0.5532,0.559,0.5574,0.5576,0.5578,0.56,0.5605,0.5609,0.5552,0.5552,0.5551,0,0,0.5268,0.5287,0.5316,0.5335,0.5364,0.5378,0.5384,0.5414,0.5424,0.5459,0.5464,0.5487,0.553,0.5549,0.5564,0.5601,0.5603,0.5609,0.5624,0.5646,0.565,0.5653,0.5668,0.5673,0.5612,0.5612,0.5612,0,0.5273,0.5315,0.5329,0.5358,0.5376,0.5383,0.5413,0.543,0.5465,0.5477,0.5471,0.5528,0.5545,0.5587,0.5596,0.5608,0.5616,0.5606,0.5648,0.5652,0.5656,0.567,0.5675,0.5613,0.5613,0.5612,0.5612,0,0.5321,0.535,0.5369,0.5405,0.5425,0.5454,0.5472,0.5491,0.5497,0.5511,0.5548,0.5569,0.5599,0.5609,0.5615,0.5653,0.5649,0.5645,0.5635,0.5661,0.5675,0.568,0.5614,0.5613,0.5613,0.5613,0,0,0.5347,0.5393,0.54,0.5417,0.545,0.5473,0.5502,0.5533,0.5549,0.5573,0.5599,0.5636,0.5634,0.5651,0.5659,0.5678,0.5708,0.5673,0.5673,0.568,0.5753,0.5756,0.5762,0.5709,0.5711,0.5711,0.5751,0,0.538,0.5434,0.5449,0.5495,0.5522,0.553,0.5556,0.5579,0.5593,0.5618,0.5633,0.566,0.5654,0.5665,0.5684,0.5701,0.5723,0.5698,0.5733,0.5734,0.5728,0.5769,0.5772,0.5809,0.5756,0.5757,0.5758,0,0.5425,0.5453,0.5502,0.5534,0.5546,0.5569,0.56,0.5624,0.565,0.5659,0.568,0.5687,0.5718,0.5705,0.5748,0.5731,0.5746,0.5756,0.5758,0.5763,0.5748,0.5776,0.582,0.5826,0.5766,0.5765,0.5765,0,0.5442,0.5491,0.5527,0.5542,0.5579,0.5596,0.5612,0.5638,0.5656,0.5683,0.5695,0.5724,0.574,0.5762,0.5777,0.5766,0.5819,0.5807,0.5828,0.5828,0.5839,0.5839,0.5888,0.5847,0.5847,0.5847,0.5847,0,0.5478,0.5508,0.5536,0.5558,0.5592,0.5609,0.5642,0.5658,0.5681,0.5707,0.5714,0.5738,0.5755,0.5781,0.5792,0.5827,0.5834,0.5842,0.5845,0.5842,0.5842,0.5853,0.5852,0.5848,0.5848,0.5848,0.5847,0,0.5502,0.5522,0.5562,0.5596,0.5605,0.5629,0.5657,0.5679,0.5694,0.5726,0.5735,0.5758,0.5789,0.5806,0.5844,0.5851,0.5891,0.5891,0.5883,0.5884,0.5904,0.5903,0.5964,0.5974,0.5925,0.5925,0.5926,0,0.5524,0.5548,0.5585,0.5603,0.5621,0.565,0.567,0.5687,0.5707,0.574,0.5758,0.579,0.5817,0.5866,0.5886,0.5916,0.5918,0.5937,0.5922,0.592,0.592,0.5919,0.5922,0.594,0.5941,0.5941,0.5941,0,0.5562,0.5571,0.56,0.5633,0.5657,0.5684,0.5709,0.5724,0.5745,0.5767,0.5801,0.5821,0.5862,0.5894,0.5926,0.5941,0.5945,0.5946,0.5953,0.5951,0.5945,0.595,0.5891,0.5945,0.5944,0.5944,0.5944,0.5944,0.5587,0.5609,0.564,0.5672,0.5694,0.5719,0.5742,0.5761,0.5789,0.5825,0.5833,0.5868,0.5895,0.5938,0.5955,0.5983,0.5979,0.5988,0.599,0.5993,0.5995,0.594,0.5988,0.5988,0.5988,0.5988,0.5988,0,0.5627,0.5647,0.5677,0.5714,0.574,0.5743,0.5772,0.5794,0.5825,0.5851,0.5878,0.5917,0.5948,0.5971,0.6003,0.6021,0.6023,0.6029,0.6028,0.6032,0.5995,0.5987,0.6026,0.6026,0.6026,0.6026,0.6026,0.6026,0.565,0.5689,0.5703,0.5752,0.5772,0.5808,0.5825,0.5848,0.5869,0.5913,0.594,0.5955,0.598,0.6014,0.6043,0.6049,0.6061,0.6067,0.6073,0.6038,0.6034,0.603,0.6023,0.6069,0.6069,0.6107,0.6108,0.6108]}]]